| time (UTC) | temp F | wind direction | speed knots | gust knots | rain 1hr in | rain 24hr in | rain mn in | humidity % | barometer mb |
| 20260507075343 | 56 | 0.0 | 0.0 | 0.00 | 0.00 | 0.00 | 76 | 1012.0 | |
| 20260507074336 | 55 | 0.0 | 0.0 | 0.00 | 0.00 | 0.00 | 76 | 1012.0 | |
| 20260507073336 | 55 | 0.0 | 0.0 | 0.00 | 0.00 | 0.00 | 80 | 1011.8 | |
| 20260507072336 | 55 | 0.0 | 0.0 | 0.00 | 0.00 | 0.00 | 80 | 1011.8 | |
| 20260507071343 | 55 | 0.0 | 0.0 | 0.00 | 0.00 | 0.00 | 80 | 1011.6 | |
| 20260507070336 | 54 | 0.0 | 0.0 | 0.00 | 0.00 | 0.00 | 80 | 1011.5 | |
| 20260507065336 | 54 | 0.0 | 0.0 | 0.00 | 0.00 | 0.00 | 81 | 1011.5 | |
| 20260507064336 | 54 | 0.0 | 0.0 | 0.00 | 0.00 | 0.00 | 81 | 1011.5 | |
| 20260507063343 | 54 | 0.0 | 0.0 | 0.00 | 0.00 | 0.00 | 83 | 1011.3 | |
| 20260507062336 | 54 | 0.0 | 0.0 | 0.00 | 0.00 | 0.00 | 83 | 1011.2 | |
| 20260507061336 | 54 | 0.0 | 0.0 | 0.00 | 0.00 | 0.00 | 85 | 1011.0 | |
| 20260507060337 | 53 | 0.0 | 0.0 | 0.00 | 0.00 | 0.00 | 87 | 1010.8 | |
| 20260507055343 | 53 | 0.0 | 0.0 | 0.00 | 0.00 | 0.00 | 87 | 1010.7 | |
| 20260507054337 | 53 | 0.0 | 0.0 | 0.00 | 0.00 | 0.00 | 88 | 1010.5 | |
| 20260507052336 | 52 | 0.0 | 0.0 | 0.00 | 0.00 | 0.00 | 89 | 1010.4 | |
| 20260507051343 | 52 | 0.0 | 0.0 | 0.00 | 0.00 | 0.00 | 91 | 1010.2 | |
| 20260507050338 | 52 | 0.0 | 0.0 | 0.00 | 0.00 | 0.00 | 91 | 1010.2 | |
| 20260507045337 | 51 | 0.0 | 0.0 | 0.00 | 0.00 | 0.00 | 91 | 1010.3 | |
| 20260507044337 | 51 | 0.0 | 0.0 | 0.00 | 0.00 | 0.00 | 92 | 1010.1 | |
| 20260507042336 | 51 | 0.0 | 0.0 | 0.00 | 0.00 | 0.00 | 92 | 1009.8 | |
| 20260507041336 | 51 | 0.0 | 0.0 | 0.00 | 0.00 | 0.00 | 92 | 1009.8 | |
| 20260507040336 | 51 | 0.0 | 0.0 | 0.00 | 0.00 | 0.00 | 92 | 1009.8 | |
| 20260507034336 | 51 | 0.0 | 0.0 | 0.00 | 0.00 | 0.00 | 92 | 1009.7 | |
| 20260507033336 | 50 | 0.0 | 0.0 | 0.00 | 0.00 | 0.00 | 92 | 1009.7 | |
| 20260507032336 | 50 | 0.0 | 0.0 | 0.00 | 0.00 | 0.00 | 91 | 1009.8 | |
| 20260507031426 | 51 | 0.0 | 0.0 | 0.00 | 0.00 | 0.00 | 91 | 1009.7 | |
| 20260507030334 | 51 | 0.0 | 0.0 | 0.00 | 0.00 | 0.00 | 91 | 1009.7 | |
| 20260507025334 | 51 | 0.0 | 0.0 | 0.00 | 0.00 | 0.00 | 91 | 1009.7 | |
| 20260507024334 | 51 | 0.0 | 0.0 | 0.00 | 0.00 | 0.00 | 91 | 1009.6 | |
| 20260507022335 | 51 | 0.0 | 0.0 | 0.00 | 0.00 | 0.00 | 91 | 1009.5 | |
| 20260507021335 | 52 | 0.0 | 0.0 | 0.00 | 0.00 | 0.00 | 91 | 1009.3 | |
| 20260507020334 | 52 | 0.0 | 0.0 | 0.00 | 0.00 | 0.00 | 91 | 1009.5 | |
| 20260507014334 | 52 | 0.0 | 0.0 | 0.00 | 0.00 | 0.00 | 91 | 1009.3 | |
| 20260507013334 | 52 | 0.0 | 0.0 | 0.00 | 0.00 | 0.00 | 91 | 1009.1 | |
| 20260507012335 | 53 | 0.0 | 0.0 | 0.00 | 0.00 | 0.00 | 91 | 1009.0 | |
| 20260507010334 | 53 | 0.0 | 0.0 | 0.00 | 0.00 | 0.00 | 91 | 1009.0 | |
| 20260507005334 | 53 | 0.0 | 0.0 | 0.00 | 0.00 | 0.00 | 92 | 1009.0 | |
| 20260507004334 | 54 | 0.0 | 0.0 | 0.00 | 0.00 | 0.00 | 92 | 1008.7 | |
| 20260507003342 | 54 | 0.0 | 0.0 | 0.00 | 0.00 | 0.00 | 92 | 1008.7 | |
| 20260507002334 | 54 | 0.0 | 0.0 | 0.00 | 0.00 | 0.00 | 92 | 1008.5 | |
| 20260507001334 | 54 | 0.0 | 0.0 | 0.00 | 0.00 | 0.00 | 91 | 1008.5 | |
| 20260507000336 | 54 | 0.0 | 0.0 | 0.00 | 0.00 | 0.00 | 92 | 1008.6 | |
| 20260506234334 | 54 | 0.0 | 0.0 | 0.00 | 0.00 | 0.00 | 91 | 1008.5 | |
| 20260506233334 | 55 | 0.0 | 0.0 | 0.00 | 0.00 | 0.00 | 91 | 1008.4 | |
| 20260506232335 | 55 | 0.0 | 0.0 | 0.00 | 0.00 | 0.00 | 91 | 1008.4 | |
| 20260506230335 | 55 | 0.0 | 0.0 | 0.00 | 0.00 | 0.00 | 92 | 1008.3 | |
| 20260506225334 | 55 | 0.0 | 0.0 | 0.00 | 0.00 | 0.00 | 92 | 1008.4 | |
| 20260506224334 | 55 | 0.0 | 0.0 | 0.00 | 0.00 | 0.00 | 91 | 1008.3 | |
| 20260506222334 | 56 | 0.0 | 0.0 | 0.00 | 0.00 | 0.00 | 91 | 1008.2 | |
| 20260506221334 | 56 | 0.0 | 0.0 | 0.00 | 0.00 | 0.00 | 91 | 1008.3 | |
| 20260506220334 | 56 | 0.0 | 0.0 | 0.00 | 0.00 | 0.00 | 90 | 1008.2 | |
| 20260506214334 | 56 | 0.0 | 0.0 | 0.00 | 0.00 | 0.00 | 91 | 1008.2 | |
| 20260506213334 | 56 | 0.0 | 0.0 | 0.00 | 0.00 | 0.00 | 90 | 1008.3 | |
| 20260506212334 | 56 | 0.0 | 0.0 | 0.00 | 0.00 | 0.00 | 89 | 1008.1 | |
| 20260506210334 | 56 | 0.0 | 0.0 | 0.00 | 0.00 | 0.00 | 88 | 1007.8 | |
| 20260506205334 | 56 | 0.0 | 0.0 | 0.00 | 0.00 | 0.00 | 88 | 1007.7 | |
| 20260506204334 | 56 | 0.0 | 0.0 | 0.00 | 0.00 | 0.00 | 88 | 1007.4 | |
| 20260506202334 | 56 | 0.0 | 0.0 | 0.00 | 0.00 | 0.00 | 88 | 1007.8 | |
| 20260506201334 | 57 | 0.0 | 0.0 | 0.00 | 0.00 | 0.00 | 88 | 1007.9 | |
| 20260506200334 | 57 | 0.0 | 0.0 | 0.00 | 0.00 | 0.00 | 87 | 1007.8 | |
| 20260506195342 | 57 | 0.0 | 0.0 | 0.00 | 0.00 | 0.00 | 87 | 1007.2 | |
| 20260506194334 | 57 | 0.0 | 0.0 | 0.00 | 0.00 | 0.00 | 84 | 1006.8 | |
| 20260506193335 | 57 | 0.0 | 0.0 | 0.00 | 0.00 | 0.00 | 84 | 1006.8 | |
| 20260506192334 | 58 | 0.0 | 0.0 | 0.00 | 0.00 | 0.00 | 86 | 1007.3 | |
| 20260506191342 | 58 | 0.0 | 0.0 | 0.00 | 0.00 | 0.00 | 87 | 1006.9 | |
| 20260506190335 | 58 | 0.0 | 0.0 | 0.00 | 0.00 | 0.00 | 86 | 1006.8 | |
| 20260506185335 | 59 | 0.0 | 0.0 | 0.00 | 0.00 | 0.00 | 88 | 1006.7 | |
| 20260506184336 | 58 | 0.0 | 0.0 | 0.00 | 0.00 | 0.00 | 87 | 1006.5 | |
| 20260506182335 | 59 | 0.0 | 0.0 | 0.00 | 0.00 | 0.00 | 85 | 1006.3 | |
| 20260506181340 | 59 | 0.0 | 0.0 | 0.00 | 0.00 | 0.00 | 81 | 1006.2 | |
| 20260506180335 | 60 | 0.0 | 0.0 | 0.00 | 0.00 | 0.00 | 80 | 1006.1 | |
| 20260506174335 | 62 | 0.0 | 0.0 | 0.00 | 0.00 | 0.00 | 70 | 1005.8 | |
| 20260506173335 | 62 | 0.0 | 0.0 | 0.00 | 0.00 | 0.00 | 70 | 1005.8 | |
| 20260506172335 | 62 | 0.0 | 0.0 | 0.00 | 0.00 | 0.00 | 70 | 1005.8 | |
| 20260506170335 | 63 | 0.0 | 0.0 | 0.00 | 0.00 | 0.00 | 68 | 1005.8 | |
| 20260506165335 | 63 | 0.0 | 0.0 | 0.00 | 0.00 | 0.00 | 71 | 1005.7 | |
| 20260506164335 | 63 | 0.0 | 0.0 | 0.00 | 0.00 | 0.00 | 71 | 1006.1 | |
| 20260506162335 | 64 | 0.0 | 0.0 | 0.00 | 0.00 | 0.00 | 66 | 1005.9 | |
| 20260506161335 | 64 | 0.0 | 0.0 | 0.00 | 0.00 | 0.00 | 65 | 1006.0 | |
| 20260506160335 | 65 | 0.0 | 0.0 | 0.00 | 0.00 | 0.00 | 65 | 1006.0 | |
| 20260506154335 | 66 | 0.0 | 0.0 | 0.00 | 0.00 | 0.00 | 58 | 1006.4 | |
| 20260506153335 | 65 | 0.0 | 0.0 | 0.00 | 0.00 | 0.00 | 58 | 1006.6 | |
| 20260506152335 | 65 | 0.0 | 0.0 | 0.00 | 0.00 | 0.00 | 59 | 1006.9 | |
| 20260506151427 | 66 | 0.0 | 0.0 | 0.00 | 0.00 | 0.00 | 59 | 1007.1 | |
| 20260506150334 | 66 | 0.0 | 0.0 | 0.00 | 0.00 | 0.00 | 59 | 1007.1 | |
| 20260506145334 | 67 | 0.0 | 0.0 | 0.00 | 0.00 | 0.00 | 58 | 1007.1 | |
| 20260506144334 | 68 | 0.0 | 0.0 | 0.00 | 0.00 | 0.00 | 56 | 1007.0 | |
| 20260506143341 | 68 | 0.0 | 0.0 | 0.00 | 0.00 | 0.00 | 55 | 1007.1 | |
| 20260506142334 | 68 | 0.0 | 0.0 | 0.00 | 0.00 | 0.00 | 55 | 1007.0 | |
| 20260506141334 | 69 | 0.0 | 0.0 | 0.00 | 0.00 | 0.00 | 53 | 1007.0 | |
| 20260506140334 | 69 | 0.0 | 0.0 | 0.00 | 0.00 | 0.00 | 52 | 1007.1 | |
| 20260506135341 | 69 | 0.0 | 0.0 | 0.00 | 0.00 | 0.00 | 53 | 1007.2 | |
| 20260506134334 | 70 | 0.0 | 0.0 | 0.00 | 0.00 | 0.00 | 52 | 1007.3 | |
| 20260506133334 | 70 | 0.0 | 0.0 | 0.00 | 0.00 | 0.00 | 53 | 1007.2 | |
| 20260506132334 | 69 | 0.0 | 0.0 | 0.00 | 0.00 | 0.00 | 53 | 1007.2 | |
| 20260506131341 | 69 | 0.0 | 0.0 | 0.00 | 0.00 | 0.00 | 53 | 1007.4 | |
| 20260506130334 | 69 | 0.0 | 0.0 | 0.00 | 0.00 | 0.00 | 53 | 1007.5 | |
| 20260506125334 | 68 | 0.0 | 0.0 | 0.00 | 0.00 | 0.00 | 54 | 1007.6 | |
| 20260506124334 | 69 | 0.0 | 0.0 | 0.00 | 0.00 | 0.00 | 54 | 1007.8 | |
| 20260506123341 | 69 | 0.0 | 0.0 | 0.00 | 0.00 | 0.00 | 53 | 1007.9 | |
| 20260506122334 | 68 | 0.0 | 0.0 | 0.00 | 0.00 | 0.00 | 56 | 1008.0 | |
| 20260506121334 | 68 | 0.0 | 0.0 | 0.00 | 0.00 | 0.00 | 56 | 1008.1 | |
| 20260506120334 | 68 | 0.0 | 0.0 | 0.00 | 0.00 | 0.00 | 56 | 1008.1 | |
| 20260506114334 | 68 | 0.0 | 0.0 | 0.00 | 0.00 | 0.00 | 56 | 1008.1 | |
| 20260506113334 | 67 | 0.0 | 0.0 | 0.00 | 0.00 | 0.00 | 57 | 1008.1 | |
| 20260506112333 | 67 | 0.0 | 0.0 | 0.00 | 0.00 | 0.00 | 58 | 1008.2 | |
| 20260506111341 | 66 | 0.0 | 0.0 | 0.00 | 0.00 | 0.00 | 59 | 1008.4 | |
| 20260506110333 | 66 | 0.0 | 0.0 | 0.00 | 0.00 | 0.00 | 59 | 1008.3 | |
| 20260506105333 | 66 | 0.0 | 0.0 | 0.00 | 0.00 | 0.00 | 59 | 1008.4 | |
| 20260506104341 | 65 | 0.0 | 0.0 | 0.00 | 0.00 | 0.00 | 60 | 1008.4 | |
| 20260506103333 | 65 | 0.0 | 0.0 | 0.00 | 0.00 | 0.00 | 61 | 1008.4 | |
| 20260506102333 | 64 | 0.0 | 0.0 | 0.00 | 0.00 | 0.00 | 61 | 1008.5 | |
| 20260506101341 | 64 | 0.0 | 0.0 | 0.00 | 0.00 | 0.00 | 62 | 1008.5 | |
| 20260506100333 | 64 | 0.0 | 0.0 | 0.00 | 0.00 | 0.00 | 63 | 1008.5 | |
| 20260506095333 | 64 | 0.0 | 0.0 | 0.00 | 0.00 | 0.00 | 63 | 1008.4 | |
| 20260506094341 | 63 | 0.0 | 0.0 | 0.00 | 0.00 | 0.00 | 64 | 1008.3 | |
| 20260506093333 | 63 | 0.0 | 0.0 | 0.00 | 0.00 | 0.00 | 65 | 1008.3 | |
| 20260506092333 | 63 | 0.0 | 0.0 | 0.00 | 0.00 | 0.00 | 65 | 1008.3 | |
| 20260506091341 | 62 | 0.0 | 0.0 | 0.00 | 0.00 | 0.00 | 66 | 1008.3 | |
| 20260506090333 | 61 | 0.0 | 0.0 | 0.00 | 0.00 | 0.00 | 67 | 1008.2 | |
| 20260506085334 | 61 | 0.0 | 0.0 | 0.00 | 0.00 | 0.00 | 69 | 1008.2 | |
| 20260506084343 | 60 | 0.0 | 0.0 | 0.00 | 0.00 | 0.00 | 71 | 1008.2 | |
| 20260506083338 | 60 | 0.0 | 0.0 | 0.00 | 0.00 | 0.00 | 73 | 1008.3 | |
| 20260506082333 | 59 | 0.0 | 0.0 | 0.00 | 0.00 | 0.00 | 74 | 1008.1 | |
| 20260506081341 | 59 | 0.0 | 0.0 | 0.00 | 0.00 | 0.00 | 75 | 1008.1 | |
| 20260506080333 | 59 | 0.0 | 0.0 | 0.00 | 0.00 | 0.00 | 74 | 1008.0 |